Cairo, IL

3:21 PM CST on December 09, 2019 (GMT -0600)
Cairo Regional

Weather History for KCIR - October, 2019

Change the Weather History Date:

Monday, October 7, 2019

  Actual Average Record
Temperature  
Mean Temperature 60 °F -  
Max Temperature 71 °F 72 °F 91 °F (2007)
Min Temperature 48 °F 52 °F 36 °F (1988)
Degree Days  
Heating Degree Days 6    
Growing Degree Days 10 (Base 50)    
Moisture  
Dew Point 51 °F    
Average Humidity 77    
Maximum Humidity 100    
Minimum Humidity 36    
Precipitation  
Precipitation 0.04 in - - ()
Sea Level Pressure  
Sea Level Pressure 30.19 in    
Wind  
Wind Speed 5 mph ()    
Max Wind Speed 12 mph    
Max Gust Speed 17 mph    
Visibility 9.5 miles    
Events Rain    
Averages and records for this station are not official NWS values.
T = Trace of Precipitation, MM = Missing Value Source: Averaged Metar Reports

Daily Weather History Graph

Daily Weather History Graph

Search for Another Location

Airport or City:

Astronomy

Oct. 07, 2019 Rise Set
Actual Time 6:57 AM CDT 6:31 PM CDT
Civil Twilight 6:31 AM CDT 6:57 PM CDT
Nautical Twilight 6:01 AM CDT 7:27 PM CDT
Astronomical Twilight 5:30 AM CDT 7:57 PM CDT
Moon 3:43 PM CDT (10/7) 1:00 AM CDT (10/7)
Length of Visible Light 12h 26m
Length of Day
11h 34m
Waxing Gibbous, 69% of the Moon is Illuminated
Oct 7
Waxing Gibbous
Oct 13
Full
Oct 21
Last Quarter
Oct 27
New
Nov 4
First Quarter

Hourly Weather History & Observations

Time (CDT) Temp. Dew Point Humidity Pressure Visibility Wind Dir Wind Speed Gust Speed Precip Events Conditions
12:15 AM 57.6 °F 56.1 °F 95% 30.14 in 10.0 mi North 6.9 mph - N/A   Overcast
12:35 AM 57.4 °F 55.9 °F 95% 30.15 in 10.0 mi North 4.6 mph - N/A   Overcast
12:55 AM 57.4 °F 55.9 °F 95% 30.14 in 10.0 mi North 6.9 mph - N/A   Overcast
1:15 AM 57.6 °F 55.8 °F 94% 30.15 in 10.0 mi NNE 6.9 mph - N/A   Overcast
1:35 AM 57.7 °F 55.6 °F 92% 30.14 in 10.0 mi North 6.9 mph - N/A   Overcast
1:55 AM 58.1 °F 55.4 °F 91% 30.15 in 10.0 mi North 6.9 mph - N/A   Overcast
2:15 AM 58.3 °F 55.9 °F 92% 30.16 in 10.0 mi NNW 8.1 mph - N/A   Overcast
2:35 AM 58.1 °F 56.1 °F 93% 30.18 in 10.0 mi NNW 11.5 mph - N/A   Overcast
2:55 AM 58.3 °F 54.9 °F 88% 30.16 in 10.0 mi North 6.9 mph 10.4 mph N/A   Overcast
3:15 AM 58.1 °F 55.0 °F 90% 30.15 in 10.0 mi North 9.2 mph - N/A   Overcast
3:35 AM 58.1 °F 54.5 °F 88% 30.16 in 10.0 mi North 8.1 mph - 0.01 in Rain Rain
3:55 AM 57.2 °F 52.0 °F 83% 30.17 in 10.0 mi North 8.1 mph 16.1 mph 0.03 in Rain Rain
4:15 AM 56.1 °F 50.7 °F 82% 30.16 in 10.0 mi North 9.2 mph 16.1 mph N/A Rain Rain
4:35 AM 55.6 °F 51.3 °F 85% 30.16 in 10.0 mi North 6.9 mph - 0.01 in   Drizzle
4:55 AM 55.4 °F 53.1 °F 92% 30.17 in 10.0 mi NNE 3.5 mph - 0.01 in Rain Rain
5:15 AM 55.4 °F 53.6 °F 94% 30.17 in 10.0 mi NNW 5.8 mph - N/A   Light Drizzle
5:35 AM 55.4 °F 54.0 °F 95% 30.17 in 10.0 mi Calm Calm - N/A Rain Light Rain
5:55 AM 55.4 °F 53.8 °F 94% 30.18 in 10.0 mi North 3.5 mph - N/A   Scattered Clouds
6:15 AM 55.6 °F 54.5 °F 96% 30.19 in 10.0 mi North 3.5 mph - N/A   Scattered Clouds
6:35 AM 55.4 °F 54.5 °F 97% 30.19 in 10.0 mi Calm Calm - N/A   Clear
6:55 AM 55.6 °F 54.9 °F 97% 30.20 in 10.0 mi Calm Calm - N/A   Clear
7:15 AM 55.0 °F 54.5 °F 98% 30.20 in 10.0 mi Calm Calm - N/A   Clear
7:35 AM 55.4 °F 55.4 °F 100% 30.20 in 10.0 mi NNW 3.5 mph - N/A   Clear
7:55 AM 56.3 °F 55.8 °F 98% 30.21 in 10.0 mi Calm Calm - N/A   Clear
8:15 AM 56.7 °F 55.6 °F 96% 30.22 in 10.0 mi NNW 4.6 mph - N/A   Clear
8:35 AM 57.2 °F 55.8 °F 95% 30.22 in 10.0 mi North 3.5 mph - N/A   Clear
8:55 AM 58.5 °F 55.4 °F 90% 30.22 in 10.0 mi NNE 8.1 mph - N/A   Clear
9:15 AM 59.5 °F 54.0 °F 82% 30.23 in 10.0 mi NNE 9.2 mph - N/A   Clear
9:35 AM 59.9 °F 53.1 °F 78% 30.23 in 10.0 mi NNE 6.9 mph - N/A   Clear
9:55 AM 60.3 °F 52.7 °F 76% 30.24 in 10.0 mi NNE 6.9 mph - N/A   Clear
10:15 AM 60.8 °F 52.5 °F 74% 30.24 in 10.0 mi NNE 5.8 mph - N/A   Clear
10:35 AM 60.8 °F 52.2 °F 73% 30.24 in 10.0 mi NNE 5.8 mph - N/A   Clear
10:55 AM 61.3 °F 50.9 °F 69% 30.25 in 10.0 mi NE 8.1 mph - N/A   Clear
11:15 AM 63.5 °F 52.2 °F 67% 30.24 in 10.0 mi NNE 6.9 mph - N/A   Clear
11:35 AM 63.0 °F 50.4 °F 63% 30.24 in 10.0 mi NNE 6.9 mph - N/A   Clear
11:55 AM 63.7 °F 51.3 °F 64% 30.24 in 10.0 mi North 5.8 mph - N/A   Clear
12:15 PM 65.3 °F 52.2 °F 62% 30.23 in 10.0 mi NNW 6.9 mph - N/A   Clear
12:35 PM 66.2 °F 50.2 °F 56% 30.23 in 10.0 mi NNE 9.2 mph - N/A   Clear
12:55 PM 67.3 °F 50.4 °F 55% 30.23 in 10.0 mi North 10.4 mph - N/A   Clear
1:35 PM 68.9 °F 48.6 °F 48% 30.21 in 10.0 mi North 9.2 mph - N/A   Clear
1:55 PM 69.8 °F 48.4 °F 46% 30.20 in 10.0 mi North 9.2 mph - N/A   Clear
2:35 PM 70.7 °F 44.6 °F 39% 30.19 in 10.0 mi North 10.4 mph - N/A   Clear
2:55 PM 70.7 °F 43.9 °F 38% 30.18 in 10.0 mi North 11.5 mph 17.3 mph N/A   Clear
3:15 PM 70.9 °F 44.6 °F 39% 30.18 in 10.0 mi North 8.1 mph - N/A   Clear
3:35 PM 71.6 °F 44.6 °F 38% 30.17 in 7.0 mi North 8.1 mph - N/A   Clear
3:55 PM 71.6 °F 43.7 °F 37% 30.17 in 10.0 mi North 10.4 mph - N/A   Clear
4:15 PM 71.1 °F 42.8 °F 36% 30.17 in 10.0 mi North 6.9 mph - N/A   Clear
4:35 PM 71.2 °F 43.2 °F 36% 30.17 in 10.0 mi NE 6.9 mph - N/A   Clear
4:55 PM 70.7 °F 43.0 °F 37% 30.17 in 7.0 mi North 9.2 mph - N/A   Clear
5:15 PM 70.5 °F 43.2 °F 37% 30.16 in 10.0 mi NNE 8.1 mph - N/A   Clear
5:35 PM 69.8 °F 43.9 °F 39% 30.17 in 10.0 mi NNE 6.9 mph - N/A   Clear
5:55 PM 68.4 °F 45.5 °F 44% 30.17 in 5.0 mi NNE 3.5 mph - N/A   Haze
6:15 PM 66.4 °F 46.0 °F 48% 30.17 in 10.0 mi NNE 3.5 mph - N/A   Clear
6:35 PM 62.2 °F 48.9 °F 62% 30.17 in 10.0 mi Calm Calm - N/A   Clear
6:55 PM 60.6 °F 49.5 °F 67% 30.17 in 10.0 mi Calm Calm - N/A   Clear
7:15 PM 57.0 °F 50.2 °F 78% 30.17 in 10.0 mi Calm Calm - N/A   Clear
7:35 PM 56.7 °F 49.8 °F 78% 30.17 in 10.0 mi Calm Calm - N/A   Clear
7:55 PM 54.7 °F 50.9 °F 87% 30.18 in 10.0 mi Calm Calm - N/A   Clear
8:15 PM 53.1 °F 50.9 °F 92% 30.18 in 10.0 mi Calm Calm - N/A   Clear
8:35 PM 54.1 °F 50.2 °F 86% 30.19 in 4.0 mi Calm Calm - N/A   Clear
8:55 PM 52.7 °F 50.7 °F 93% 30.20 in 10.0 mi Calm Calm - N/A   Clear
9:15 PM 51.4 °F 50.0 °F 95% 30.20 in 10.0 mi Calm Calm - N/A   Clear
9:35 PM 52.0 °F 50.2 °F 94% 30.20 in 10.0 mi Calm Calm - N/A   Clear
9:55 PM 51.1 °F 49.6 °F 95% 30.20 in 10.0 mi Calm Calm - N/A   Clear
10:15 PM 50.9 °F 49.8 °F 96% 30.20 in 2.5 mi Calm Calm - N/A   Clear
10:35 PM 51.4 °F 50.2 °F 95% 30.21 in 2.0 mi Calm Calm - N/A   Clear
10:55 PM 50.2 °F 49.8 °F 99% 30.20 in 10.0 mi Calm Calm - N/A   Clear
11:15 PM 49.8 °F 49.3 °F 98% 30.20 in 10.0 mi Calm Calm - N/A   Clear
11:35 PM 48.9 °F 48.6 °F 99% 30.20 in 10.0 mi Calm Calm - N/A   Clear
11:55 PM 49.1 °F 48.9 °F 99% 30.20 in 10.0 mi Calm Calm - N/A   Clear